Showing default

ANIK G1, 39127

Orbit data source: Space-Track

ANIK G1, 39127 is a payload satellite owned by Telesat (Loral) (CA) in GEO that was launched on Mon, 15 Apr 2013 UTC via a PROTON-M/BRIZ-M launch vehicle from the Tyuratam Missile And Space Complex (TTMTR). Payload-class satellites include a variety of spacecraft equipped with specific instruments for various scientific and technological missions. These include communications satellites like Starlink; space stations such as the ISS; scientific satellites like the Hubble; Earth observation satellites from companies like Planet Labs, Umbra, and HawkEye 360; GPS; miniature CubeSats for education and research; and military/defense satellites.

Loading next visibility...
Identifier
39127, 2013-014A
Orbit
GEO
Country
Flag of CACA
Related business
Manufacturer
SS/Loral (MDA)
Mission
Operational Commercial Communications
Bus & Motor
SSL-1300, R-4D-15?
Mass
4,905 kg wet, ~2,500 kg dry
Launch date (UTC)
2013-04-15 (12 years ago)
Launch vehicle
PROTON-M/BRIZ-M
Launch site
Tyuratam Missile And Space Complex (TTMTR)
Object type
Payload
Rocket body
Debris
Shape & HBR
Box + 2 Pan, 15.0 m
Radar Cross Section
50.206 m², Large (>1 m²)

Expand to show TLE details & history
Last TLE update: 21 hours ago

TLE from 21 hours ago
0 ANIK G1
1 39127U 13014A   25242.14818744 -.00000070  00000-0  00000-0 0  9991
2 39127   0.0595 273.7604 0002660 268.4690 102.4034  1.00272299 45332
Epoch: 2025-08-30T03:33Z
TLE epoch observation values (Epoch: 2025-08-30T03:33:23.394Z)
Latitude
0.02421°
Longitude
-107.27482°
Altitude
35,788.39 km
Speed
3.075 km/s
True Right ascension
18h 58m 38s
True Declination
0° 01' 27"
Sunlit
Object was in daylight at epoch
Visualization orbit readout
Latitude
Unknown
Longitude
Unknown
Altitude
Unknown
Speed
Unknown
Apparent Right ascension
Unknown
Apparent Declination
Unknown
Sunlit
N/A
Visualization observer readout
Local Sidereal Time
15:55:36
Azimuth
Unknown
Elevation
Unknown
Doppler factor
Unknown
Orbital elements
Apogee altitude
35,798.737 km
Perigee altitude
35,776.305 km
Semi-major axis
42,165.658 km
Eccentricity
0.00027
Inclination
0.0595°
RAAN
273.7604°
Arg. of periapsis
268.469°
True anomaly
102.43317°
Mean anomaly
102.4034°
Eccentric anomaly
102.41828°
Mean motion
0.25067 °/min
Orbital period
1,436.14 mins
BSTAR
0
Loading maneuver chart data...
Computing Atmospheric mass density...
Loading historical data...
Loading historical data...
Loading historical data...
Loading historical data...
Loading historical data...
Loading historical data...
Loading historical data...
Other satellites on launch #14 in the year 2013 (2013-04-15 UTC)

Documentation

Showing up to 5 results
|